Date String (YYYY-MM-DD hh:mm:ss) UTC,Instrument flags,Ambient pressure (hPa),Sample flow (lpm),Bypass flow (lpm),Sample temperature (°C),Ambient temperature (°C),ASC tube jacket temperature (°C),LED temperature (°C),Box temperature (°C),Sample RH (%),Span deviation,Mass concentration (μg/m³),Mass concentration (μg/m³),Mass concentration (μg/m³)
DateTimeUTC,F1_M11,P_M11,Q1_M11,Q2_M11,T1_M11,T2_M11,T3_M11,T4_M11,T5_M11,U1_M11,ZSPAN_M11,X0_M11,X2_M11,X1_M11
2022-04-04 18:00:00,,0817.8,5.00,0.00,24.4,23.8,00.0,33.3,26.3,13.1,0003.1,0019.65,0008.19,0006.00
2022-04-04 18:01:00,,0817.7,5.02,0.00,24.4,23.8,00.0,33.3,26.3,12.8,0002.6,0020.17,0008.17,0005.95
2022-04-04 18:02:00,,0817.7,4.99,0.00,24.4,23.8,00.0,33.3,26.3,12.7,0001.2,0019.34,0008.04,0005.86
2022-04-04 18:03:00,,0817.7,5.01,0.00,24.4,23.7,00.0,33.3,26.3,12.3,0000.4,0018.77,0007.93,0005.77
2022-04-04 18:04:00,,0817.7,5.01,0.00,24.4,23.7,00.0,33.3,26.3,12.2,0000.0,0017.95,0007.88,0005.70
2022-04-04 18:05:00,,0817.7,5.00,0.00,24.4,23.7,00.0,33.3,26.3,12.3,0000.8,0018.06,0007.83,0005.65
2022-04-04 18:06:00,,0817.7,5.00,0.00,24.4,23.7,00.0,33.3,26.3,12.1,0001.2,0017.85,0007.70,0005.59
2022-04-04 18:07:00,,0817.6,5.00,0.00,24.4,23.7,00.0,33.3,26.2,11.7,0001.2,0018.17,0007.57,0005.53
2022-04-04 18:08:00,,0817.6,5.00,0.00,24.4,23.7,00.0,33.3,26.2,11.0,0000.6,0018.47,0007.38,0005.45
2022-04-04 18:09:00,,0817.6,5.00,0.00,24.4,23.7,00.0,33.3,26.2,10.9,0000.0,0017.70,0007.21,0005.36
2022-04-04 18:10:00,,0817.6,5.01,0.00,24.4,23.7,00.0,33.3,26.2,10.6,0000.0,0017.04,0007.06,0005.28
2022-04-04 18:11:00,,0817.5,5.00,0.00,24.4,23.7,00.0,33.3,26.2,10.6,0000.0,0016.50,0006.97,0005.22
2022-04-04 18:12:00,,0817.5,5.00,0.00,24.4,23.7,00.0,33.3,26.2,10.5,0000.0,0015.73,0006.87,0005.14
2022-04-04 18:13:00,,0817.5,4.99,0.00,24.4,23.7,00.0,33.3,26.3,10.7,0000.0,0015.44,0006.76,0005.06
2022-04-04 18:14:00,,0817.5,5.00,0.00,24.4,23.8,00.0,33.3,26.3,11.7,0000.0,0015.47,0006.72,0005.03
2022-04-04 18:15:00,,0817.5,4.99,0.00,24.4,23.8,00.0,33.3,26.3,11.3,0000.0,0015.70,0006.69,0004.99
2022-04-04 18:16:00,,0817.4,5.00,0.00,24.4,23.8,00.0,33.4,26.3,11.2,0000.0,0015.39,0006.66,0004.96
2022-04-04 18:17:00,,0817.4,5.00,0.00,24.5,23.8,00.0,33.4,26.3,11.6,0000.0,0015.26,0006.72,0004.95
2022-04-04 18:18:00,,0817.4,5.00,0.00,24.5,23.8,00.0,33.4,26.3,11.5,0000.0,0015.24,0006.76,0004.93
2022-04-04 18:19:00,,0817.4,5.00,0.00,24.5,23.8,00.0,33.4,26.3,11.5,0000.0,0014.74,0006.81,0004.95
2022-04-04 18:20:00,,0817.4,5.01,0.00,24.5,23.8,00.0,33.4,26.3,11.0,0000.0,0015.47,0006.86,0004.96
2022-04-04 18:21:00,,0817.4,5.00,0.00,24.5,23.9,00.0,33.4,26.3,11.2,0000.0,0015.45,0006.91,0004.96
2022-04-04 18:22:00,,0817.3,5.00,0.00,24.5,23.8,00.0,33.4,26.3,11.8,0000.0,0016.47,0006.97,0004.99
2022-04-04 18:23:00,,0817.3,5.00,0.00,24.5,23.8,00.0,33.4,26.3,11.9,0000.0,0016.94,0007.01,0005.05
2022-04-04 18:24:00,,0817.2,5.00,0.00,24.5,23.8,00.0,33.4,26.3,11.5,0000.0,0017.65,0007.14,0005.12
2022-04-04 18:25:00,,0817.1,5.01,0.00,24.5,23.8,00.0,33.4,26.3,11.5,0000.0,0017.99,0007.22,0005.15
2022-04-04 18:26:00,,0817.0,5.00,0.00,24.5,23.9,00.0,33.4,26.4,12.3,0001.3,0018.18,0007.25,0005.19
2022-04-04 18:27:00,,0817.0,5.01,0.00,24.5,23.9,00.0,33.4,26.4,11.6,0001.9,0018.70,0007.25,0005.22
2022-04-04 18:28:00,,0817.0,4.99,0.00,24.5,23.9,00.0,33.4,26.4,11.9,0002.0,0019.32,0007.22,0005.25
2022-04-04 18:29:00,,0817.0,4.99,0.00,24.6,23.9,00.0,33.4,26.4,12.0,0002.3,0020.30,0007.28,0005.31
2022-04-04 18:30:00,,0817.3,5.00,0.00,24.6,24.0,00.0,33.4,26.4,11.9,0002.8,0020.95,0007.31,0005.34
2022-04-04 18:31:00,,0817.0,5.00,0.00,24.6,24.0,00.0,33.5,26.5,11.5,0002.2,0020.52,0007.38,0005.39
2022-04-04 18:32:00,,0816.8,5.01,0.00,24.6,24.0,00.0,33.5,26.5,11.7,0002.7,0020.60,0007.45,0005.44
2022-04-04 18:33:00,,0816.8,4.99,0.00,24.7,24.1,00.0,33.5,26.5,11.7,0003.1,0019.71,0007.45,0005.46
2022-04-04 18:34:00,,0816.8,5.00,0.00,24.7,24.1,00.0,33.5,26.6,11.9,0003.6,0019.40,0007.45,0005.45
2022-04-04 18:35:00,,0816.7,5.00,0.00,24.8,24.2,00.0,33.5,26.6,12.1,0003.5,0018.80,0007.37,0005.40
2022-04-04 18:36:00,,0816.7,5.00,0.00,24.8,24.2,00.0,33.6,26.7,11.5,0003.1,0018.95,0007.28,0005.36
2022-04-04 18:37:00,,0816.8,4.98,0.00,24.8,24.2,00.0,33.6,26.7,11.2,0002.3,0019.15,0007.23,0005.30
2022-04-04 18:38:00,,0816.7,4.99,0.00,24.8,24.3,00.0,33.6,26.7,11.3,0001.5,0018.52,0007.11,0005.23
2022-04-04 18:39:00,,0816.7,5.00,0.00,24.9,24.3,00.0,33.6,26.7,11.2,0000.3,0018.44,0007.07,0005.17
2022-04-04 18:40:00,,0816.7,5.01,0.00,24.9,24.4,00.0,33.6,26.8,10.9,0000.3,0017.44,0006.92,0005.09
2022-04-04 18:41:00,,0816.6,4.99,0.00,24.9,24.4,00.0,33.7,26.8,10.9,0001.8,0017.26,0006.86,0005.02
2022-04-04 18:42:00,,0816.6,5.00,0.00,25.0,24.4,00.0,33.7,26.8,10.9,0000.0,0017.89,0006.79,0004.96
2022-04-04 18:43:00,,0816.5,4.99,0.00,25.0,24.5,00.0,33.7,26.9,11.0,0000.0,0018.42,0006.75,0004.90
2022-04-04 18:44:00,,0816.7,5.01,0.00,25.0,24.5,00.0,33.7,26.9,10.8,0000.0,0019.10,0006.69,0004.81
2022-04-04 18:45:00,,0816.5,4.99,0.00,25.1,24.5,00.0,33.8,27.0,10.8,0000.0,0019.74,0006.58,0004.73
2022-04-04 18:46:00,,0816.5,5.01,0.00,25.1,24.6,00.0,33.8,27.0,10.7,0000.0,0020.33,0006.53,0004.67
2022-04-04 18:47:00,,0816.5,5.01,0.00,25.2,24.6,00.0,33.8,27.1,10.8,0000.0,0019.89,0006.46,0004.60
2022-04-04 18:48:00,,0816.5,5.00,0.00,25.2,24.6,00.0,33.9,27.1,10.9,0000.0,0020.48,0006.40,0004.53
2022-04-04 18:49:00,,0816.5,5.00,0.00,25.2,24.7,00.0,33.9,27.1,10.9,0000.0,0021.49,0006.40,0004.46
2022-04-04 18:50:00,,0816.5,5.00,0.00,25.3,24.7,00.0,33.9,27.2,09.6,0000.0,0021.26,0006.29,0004.37
2022-04-04 18:51:00,,0816.5,5.00,0.00,25.3,24.7,00.0,34.0,27.2,09.1,0000.0,0021.12,0006.21,0004.27
2022-04-04 18:52:00,,0816.5,5.00,0.00,25.3,24.7,00.0,34.0,27.2,09.2,0000.0,0020.52,0006.09,0004.16
2022-04-04 18:53:00,,0816.5,5.00,0.00,25.3,24.7,00.0,34.0,27.2,09.7,0000.0,0019.88,0005.93,0004.06
2022-04-04 18:54:00,,0816.5,5.01,0.00,25.3,24.7,00.0,34.0,27.2,09.2,0000.0,0019.14,0005.81,0003.97
2022-04-04 18:55:00,,0816.5,5.00,0.00,25.3,24.7,00.0,34.1,27.2,09.1,0000.0,0018.13,0005.67,0003.90
2022-04-04 18:56:00,,0816.5,5.00,0.00,25.3,24.7,00.0,34.1,27.3,08.9,0000.0,0016.83,0005.54,0003.81
2022-04-04 18:57:00,,0816.5,5.00,0.00,25.4,24.7,00.0,34.1,27.3,08.6,0000.0,0016.21,0005.46,0003.73
2022-04-04 18:58:00,,0816.6,5.00,0.00,25.4,24.7,00.0,34.1,27.3,08.5,0000.0,0015.94,0005.39,0003.67
2022-04-04 18:59:00,,0816.5,5.01,0.00,25.4,24.8,00.0,34.2,27.3,08.2,0000.0,0014.42,0005.29,0003.60
